Weather History for Greenville, NC

Change the Weather History Date:

Sunday, June 17, 2012

  Actual Average Record
Temperature  
Mean Temperature 64 °F -  
Max Temperature 77 °F 87 °F 98 °F (1981)
Min Temperature 50 °F 66 °F 49 °F (1961)
Degree Days  
Heating Degree Days 2    
Growing Degree Days 14 (Base 50)    
Moisture  
Dew Point 55 °F    
Average Humidity 73    
Maximum Humidity 100    
Minimum Humidity 47    
Precipitation  
Precipitation 0.00 in - - ()
Sea Level Pressure  
Sea Level Pressure 30.13 in    
Wind  
Wind Speed 5 mph (NE)    
Max Wind Speed 12 mph    
Max Gust Speed 16 mph    
Visibility 9 miles    
Events      
Averages and records for this station are not official NWS values.
T = Trace of Precipitation, MM = Missing Value Source: NWS Daily Summary

Daily Weather History Graph

Daily Weather History Graph

Search for Another Location

Airport:

Trip Planner

Search our weather history database for the weather conditions in past years. The results will help you decide how hot, cold, wet, or windy it might be!

Date:

Astronomy

Jun. 17, 2012 Rise Set
Actual Time 5:53 AM EDT 8:27 PM EDT
Civil Twilight 5:23 AM EDT 8:57 PM EDT
Nautical Twilight 4:46 AM EDT 9:35 PM EDT
Astronomical Twilight 4:04 AM EDT 10:16 PM EDT
Moon 4:19 AM EDT (6/17) 6:55 PM EDT (6/17)
Length of Visible Light 15h 34m
Length of Day
14h 34m
Waning Crescent, 4% of the Moon is Illuminated
Jun 17
Waning Crescent
Jun 19
New
Jun 26
First Quarter
Jul 3
Full
Jul 10
Last Quarter

Hourly Weather History & Observations

Time (EDT) Temp. Dew Point Humidity Pressure Visibility Wind Dir Wind Speed Gust Speed Precip Events Conditions
12:15 AM 59.0 °F 53.6 °F 82% 30.19 in 10.0 mi NE 4.6 mph - N/A   Clear
12:35 AM 59.0 °F 53.6 °F 82% 30.19 in 10.0 mi NNE 4.6 mph - N/A   Clear
12:55 AM 55.4 °F 51.8 °F 88% 30.19 in 10.0 mi North 4.6 mph - N/A   Clear
1:15 AM 55.4 °F 53.6 °F 94% 30.18 in 10.0 mi North 4.6 mph - N/A   Clear
1:35 AM 55.4 °F 53.6 °F 94% 30.18 in 10.0 mi North 4.6 mph - N/A   Clear
1:55 AM 55.4 °F 53.6 °F 94% 30.18 in 10.0 mi North 4.6 mph - N/A   Clear
2:15 AM 53.6 °F 51.8 °F 94% 30.17 in 10.0 mi North 4.6 mph - N/A   Clear
2:35 AM 53.6 °F 51.8 °F 94% 30.16 in 10.0 mi NNE 4.6 mph - N/A   Clear
2:55 AM 53.6 °F 51.8 °F 94% 30.16 in 10.0 mi North 3.5 mph - N/A   Clear
3:15 AM 53.6 °F 51.8 °F 94% 30.16 in 10.0 mi North 4.6 mph - N/A   Clear
3:35 AM 53.6 °F 51.8 °F 94% 30.16 in 10.0 mi Calm Calm - N/A   Clear
3:55 AM 53.6 °F 51.8 °F 94% 30.16 in 10.0 mi Calm Calm - N/A   Clear
4:15 AM 51.8 °F 51.8 °F 100% 30.16 in 3.0 mi Calm Calm - N/A   Clear
4:35 AM 53.6 °F 51.8 °F 94% 30.16 in 1.5 mi Calm Calm - N/A   Mist
4:55 AM 51.8 °F 51.8 °F 100% 30.16 in 5.0 mi Calm Calm - N/A   Clear
5:15 AM 53.6 °F 53.6 °F 100% 30.16 in 7.0 mi NNW 3.5 mph - N/A   Clear
5:35 AM 50.0 °F 50.0 °F 100% 30.17 in 5.0 mi Calm Calm - N/A   Clear
5:55 AM 51.8 °F 51.8 °F 100% 30.17 in 7.0 mi Calm Calm - N/A   Clear
6:15 AM 51.8 °F 51.8 °F 100% 30.17 in 7.0 mi North 3.5 mph - N/A   Clear
6:35 AM 53.6 °F 53.6 °F 100% 30.18 in 7.0 mi North 3.5 mph - N/A   Clear
6:55 AM 55.4 °F 53.6 °F 94% 30.18 in 7.0 mi North 4.6 mph - N/A   Clear
7:15 AM 55.4 °F 55.4 °F 100% 30.18 in 10.0 mi North 5.8 mph - N/A   Clear
7:35 AM 59.0 °F 55.4 °F 88% 30.18 in 10.0 mi NNE 5.8 mph - N/A   Clear
7:55 AM 59.0 °F 55.4 °F 88% 30.18 in 10.0 mi NNE 5.8 mph - N/A   Clear
8:15 AM 60.8 °F 57.2 °F 88% 30.18 in 10.0 mi NNE 6.9 mph - N/A   Clear
8:35 AM 62.6 °F 57.2 °F 82% 30.19 in 10.0 mi North 6.9 mph - N/A   Clear
8:55 AM 64.4 °F 57.2 °F 77% 30.19 in 10.0 mi NNE 9.2 mph - N/A   Scattered Clouds
9:15 AM 64.4 °F 57.2 °F 77% 30.19 in 10.0 mi NNE 9.2 mph - N/A   Scattered Clouds
9:35 AM 64.4 °F 55.4 °F 73% 30.18 in 10.0 mi NNE 8.1 mph - N/A   Mostly Cloudy
9:55 AM 68.0 °F 55.4 °F 64% 30.18 in 10.0 mi NNE 5.8 mph - N/A   Mostly Cloudy
10:15 AM 68.0 °F 55.4 °F 64% 30.18 in 10.0 mi North 5.8 mph - N/A   Mostly Cloudy
10:35 AM 68.0 °F 55.4 °F 64% 30.18 in 10.0 mi North 4.6 mph - N/A   Mostly Cloudy
11:15 AM 68.0 °F 53.6 °F 60% 30.17 in 10.0 mi NNE 5.8 mph - N/A   Scattered Clouds
11:35 AM 69.8 °F 55.4 °F 60% 30.17 in 10.0 mi North 8.1 mph - N/A   Scattered Clouds
11:55 AM 71.6 °F 55.4 °F 57% 30.16 in 10.0 mi NNE 6.9 mph - N/A   Mostly Cloudy
12:15 PM 71.6 °F 55.4 °F 57% 30.16 in 10.0 mi North 8.1 mph - N/A   Scattered Clouds
12:35 PM 73.4 °F 55.4 °F 53% 30.15 in 10.0 mi NNE 11.5 mph 16.1 mph N/A   Scattered Clouds
12:55 PM 73.4 °F 55.4 °F 53% 30.14 in 10.0 mi East 9.2 mph - N/A   Scattered Clouds
1:15 PM 73.4 °F 55.4 °F 53% 30.14 in 10.0 mi ENE 8.1 mph - N/A   Mostly Cloudy
1:35 PM 73.4 °F 55.4 °F 53% 30.13 in 10.0 mi ENE 8.1 mph - N/A   Mostly Cloudy
1:55 PM 73.4 °F 55.4 °F 53% 30.12 in 10.0 mi ENE 5.8 mph - N/A   Scattered Clouds
2:15 PM 73.4 °F 53.6 °F 50% 30.11 in 10.0 mi NE 8.1 mph - N/A   Scattered Clouds
2:35 PM 73.4 °F 53.6 °F 50% 30.11 in 10.0 mi North 3.5 mph - N/A   Scattered Clouds
2:55 PM 75.2 °F 55.4 °F 50% 30.11 in 10.0 mi Calm Calm - N/A   Mostly Cloudy
3:15 PM 73.4 °F 55.4 °F 53% 30.11 in 10.0 mi NNE 4.6 mph - N/A   Scattered Clouds
3:35 PM 75.2 °F 55.4 °F 50% 30.11 in 10.0 mi North 4.6 mph - N/A   Mostly Cloudy
3:55 PM 77.0 °F 55.4 °F 47% 30.10 in 10.0 mi Calm Calm - N/A   Scattered Clouds
4:15 PM 77.0 °F 55.4 °F 47% 30.09 in 10.0 mi NNE 8.1 mph - N/A   Mostly Cloudy
4:35 PM 77.0 °F 55.4 °F 47% 30.09 in 10.0 mi ENE 5.8 mph - N/A   Scattered Clouds
4:55 PM 77.0 °F 55.4 °F 47% 30.08 in 10.0 mi ESE 8.1 mph - N/A   Scattered Clouds
5:15 PM 73.4 °F 53.6 °F 50% 30.07 in 10.0 mi ENE 3.5 mph - N/A   Scattered Clouds
5:35 PM 75.2 °F 55.4 °F 50% 30.07 in 10.0 mi NE 5.8 mph - N/A   Mostly Cloudy
5:55 PM 77.0 °F 55.4 °F 47% 30.06 in 10.0 mi East 9.2 mph - N/A   Mostly Cloudy
6:15 PM 73.4 °F 55.4 °F 53% 30.06 in 10.0 mi ENE 6.9 mph - N/A   Mostly Cloudy
6:35 PM 73.4 °F 55.4 °F 53% 30.06 in 10.0 mi East 8.1 mph - N/A   Scattered Clouds
6:55 PM 73.4 °F 57.2 °F 57% 30.06 in 10.0 mi ENE 6.9 mph - N/A   Scattered Clouds
7:15 PM 71.6 °F 57.2 °F 60% 30.06 in 10.0 mi East 6.9 mph - N/A   Scattered Clouds
7:35 PM 71.6 °F 55.4 °F 57% 30.06 in 10.0 mi ENE 6.9 mph - N/A   Clear
7:55 PM 69.8 °F 57.2 °F 64% 30.07 in 10.0 mi East 8.1 mph - N/A   Clear
8:15 PM 68.0 °F 57.2 °F 68% 30.07 in 10.0 mi ENE 5.8 mph - N/A   Clear
8:35 PM 68.0 °F 57.2 °F 68% 30.07 in 10.0 mi East 8.1 mph - N/A   Clear
8:55 PM 66.2 °F 57.2 °F 73% 30.08 in 10.0 mi East 8.1 mph - N/A   Clear
9:15 PM 66.2 °F 57.2 °F 73% 30.08 in 10.0 mi East 9.2 mph - N/A   Clear
9:35 PM 64.4 °F 55.4 °F 73% 30.09 in 10.0 mi East 6.9 mph - N/A   Clear
9:55 PM 64.4 °F 55.4 °F 73% 30.09 in 10.0 mi East 6.9 mph - N/A   Clear
10:15 PM 62.6 °F 55.4 °F 77% 30.10 in 10.0 mi East 6.9 mph - N/A   Clear
10:35 PM 62.6 °F 55.4 °F 77% 30.10 in 10.0 mi ESE 6.9 mph - N/A   Clear
10:55 PM 60.8 °F 55.4 °F 82% 30.10 in 10.0 mi ESE 5.8 mph - N/A   Clear
11:15 PM 60.8 °F 53.6 °F 77% 30.11 in 10.0 mi ESE 4.6 mph - N/A   Clear
11:35 PM 60.8 °F 53.6 °F 77% 30.11 in 10.0 mi East 5.8 mph - N/A   Clear
11:55 PM 60.8 °F 53.6 °F 77% 30.11 in 10.0 mi ESE 3.5 mph - N/A   Clear